RHESSI                  
1 27370U 02004A   19257.85162104  .00001212  00000-0  43077-4 0  9997
2 27370  38.0328  78.4176 0013238 239.9919 119.9539 15.31798814971884
PEGASUS R/B             
1 27371U 02004B   19258.14824753  .00000167  00000-0  17512-4 0  9999
2 27371  38.0278 243.3581 0011463 264.5320  95.4135 15.08910148966143